Location: Newark
(63.1158°N, 8.1461°E)
Time: 17:37:34
(UTC+00:00)

Envisat - Pass Details

Date: 11 December 2019
Orbit: 764 x 766 km, 98.1° (Epoch: 21 January)

Event Time Altitude Azimuth Distance (km) Brightness Sun altitude
Rises 18:43:55 0° 213° (SSW) 3,231 6.5 -29.8°
Reaches altitude 10° 18:46:51 10° 230° (SW) 2,309 5.9 -30.1°
Maximum altitude 18:50:31 20° 276° (W) 1,739 5.5 -30.5°
Drops below altitude 10° 18:54:13 10° 323° (NW) 2,320 6.0 -30.9°
Sets 18:57:10 0° 340° (NNW) 3,251 6.6 -31.3°
